Location: ????????
(55.3155°N, 39.2900°E)
Time: 17:59:22
(UTC+00:00)

ACS3 Solar Sail - Pass Details

Date: 22 November 2025
Orbit: 889 x 1003 km, 97.3° (Epoch: 06 December)

Event Time Altitude Azimuth Distance (km) Brightness Sun altitude
Rises 00:47:28 0° 14° (NNE) 3,583 5.1 -36.3°
Reaches altitude 10° 00:49:53 10° 15° (NNE) 2,652 4.4 -36.0°
Enters shadow 00:53:02 34° 20° (NNE) 1,521 3.0 -35.6°
